When you browse on this site, cookies collect data to enhance your experience and personalize the content and advertising you see.
Visit our Privacy Policy to learn more. By continuing to use the site, you agree to this use of cookies and data.
  • In United Kingdom
  • List of Countries
  • For 7 days
  • Water Temperature
  • Satellite Maps
  • Weather Map
  • Weather Widgets
  • user-avatar
    Login

    Hourly Weather Yakkabog

    Today, 17 January, Thursday

    Time Temperature Precipitation Wind Pressure Humidity
    00:00 +7°C° 0 mm 4 mps 711 mmHg 40%
    01:00 +7°C° 0 mm 4 mps 711 mmHg 39%
    02:00 +7°C° 0 mm 4 mps 711 mmHg 39%
    03:00 +7°C° 0 mm 4 mps 711 mmHg 38%
    04:00 +7°C° 0 mm 5 mps 711 mmHg 38%
    05:00 +7°C° 0 mm 5 mps 711 mmHg 38%
    06:00 +7°C° 0 mm 5 mps 711 mmHg 38%
    07:00 +7°C° 0 mm 5 mps 711 mmHg 38%
    08:00 +9°C° 0 mm 5 mps 710 mmHg 37%
    09:00 +13°C° 0 mm 5 mps 710 mmHg 35%
    10:00 +15°C° 0 mm 5 mps 710 mmHg 33%
    11:00 +16°C° 0 mm 5 mps 710 mmHg 31%
    12:00 +17°C° 0 mm 5 mps 710 mmHg 29%
    13:00 +19°C° 0 mm 5 mps 709 mmHg 27%
    14:00 +17°C° 0 mm 5 mps 709 mmHg 29%
    15:00 +16°C° 0 mm 5 mps 708 mmHg 31%
    16:00 +15°C° 0 mm 5 mps 708 mmHg 33%
    17:00 +14°C° 0 mm 5 mps 708 mmHg 31%
    18:00 +13°C° 0 mm 5 mps 707 mmHg 30%
    19:00 +13°C° 0 mm 6 mps 707 mmHg 28%
    20:00 +13°C° 0.1 mm 6 mps 706 mmHg 28%
    21:00 +13°C° 0.1 mm 6 mps 706 mmHg 29%
    22:00 +12°C° 0.1 mm 7 mps 706 mmHg 29%
    23:00 +14°C° 0.1 mm 7 mps 705 mmHg 31%

    Tomorrow, 18 January, Friday

    Time Temperature Precipitation Wind Pressure Humidity
    00:00 +14°C° 0.1 mm 7 mps 705 mmHg 32%
    01:00 +14°C° 0.1 mm 7 mps 704 mmHg 34%
    02:00 +14°C° 0.2 mm 7 mps 704 mmHg 35%
    03:00 +14°C° 0.2 mm 7 mps 704 mmHg 35%
    04:00 +15°C° 0.2 mm 7 mps 704 mmHg 35%
    05:00 +13°C° 1.5 mm 8 mps 704 mmHg 42%
    06:00 +13°C° 1.5 mm 8 mps 704 mmHg 49%
    07:00 +12°C° 1.5 mm 9 mps 704 mmHg 56%
    08:00 +13°C° 0.5 mm 8 mps 704 mmHg 54%
    09:00 +15°C° 0.5 mm 7 mps 705 mmHg 52%
    10:00 +15°C° 0.5 mm 7 mps 705 mmHg 49%
    11:00 +14°C° 1.2 mm 6 mps 706 mmHg 54%
    12:00 +14°C° 1.2 mm 5 mps 706 mmHg 59%
    13:00 +13°C° 1.2 mm 4 mps 706 mmHg 64%
    14:00 +13°C° 0.6 mm 4 mps 707 mmHg 63%
    15:00 +12°C° 0.6 mm 5 mps 708 mmHg 61%
    16:00 +10°C° 0.6 mm 5 mps 708 mmHg 59%
    17:00 +10°C° 0 mm 3 mps 709 mmHg 63%
    18:00 +9°C° 0 mm 2 mps 709 mmHg 66%
    19:00 +9°C° 0 mm 1 mps 710 mmHg 69%
    20:00 +9°C° 0 mm 1 mps 710 mmHg 68%
    21:00 +8°C° 0 mm 1 mps 710 mmHg 68%
    22:00 +8°C° 0 mm 1 mps 711 mmHg 67%
    23:00 +8°C° 0 mm 1 mps 711 mmHg 67%

    Day after tomorrow, 19 January, Saturday

    Time Temperature Precipitation Wind Pressure Humidity
    00:00 +7°C° 0 mm 1 mps 711 mmHg 66%
    01:00 +6°C° 0 mm 2 mps 711 mmHg 66%
    02:00 +6°C° 0 mm 2 mps 711 mmHg 66%
    03:00 +5°C° 0 mm 2 mps 711 mmHg 67%
    04:00 +5°C° 0 mm 2 mps 712 mmHg 67%
    05:00 +5°C° 0 mm 2 mps 712 mmHg 69%
    06:00 +5°C° 0 mm 1 mps 712 mmHg 71%
    07:00 +5°C° 0 mm 1 mps 712 mmHg 72%
    08:00 +5°C° 0 mm 2 mps 712 mmHg 67%
    09:00 +6°C° 0 mm 2 mps 712 mmHg 62%
    10:00 +7°C° 0 mm 3 mps 712 mmHg 56%
    11:00 +8°C° 0 mm 3 mps 712 mmHg 55%
    12:00 +9°C° 0 mm 3 mps 711 mmHg 54%
    13:00 +9°C° 0 mm 3 mps 711 mmHg 52%
    14:00 +9°C° 0 mm 3 mps 711 mmHg 55%
    15:00 +9°C° 0 mm 3 mps 710 mmHg 57%
    16:00 +8°C° 0 mm 3 mps 710 mmHg 60%
    17:00 +7°C° 0 mm 3 mps 710 mmHg 63%
    18:00 +7°C° 0 mm 2 mps 711 mmHg 66%
    19:00 +6°C° 0 mm 2 mps 711 mmHg 70%
    20:00 +4°C° 0.3 mm 3 mps 711 mmHg 72%
    21:00 +4°C° 0.3 mm 3 mps 711 mmHg 75%
    22:00 +3°C° 0.3 mm 3 mps 711 mmHg 77%
    23:00 +3°C° 0.9 mm 3 mps 711 mmHg 80%

    20 January, Sunday

    Time Temperature Precipitation Wind Pressure Humidity
    00:00 +2°C° 0.9 mm 3 mps 711 mmHg 82%
    01:00 +3°C° 0.9 mm 2 mps 712 mmHg 85%
    02:00 +3°C° 0.6 mm 2 mps 712 mmHg 85%
    03:00 +2°C° 0.6 mm 2 mps 712 mmHg 86%
    04:00 +2°C° 0.6 mm 2 mps 712 mmHg 87%
    05:00 +1°C° 0.3 mm 2 mps 712 mmHg 87%
    06:00 +1°C° 0.3 mm 2 mps 712 mmHg 87%
    07:00 +1°C° 0.3 mm 2 mps 713 mmHg 87%
    08:00 +1°C° 0.1 mm 2 mps 713 mmHg 85%
    09:00 +1°C° 0.1 mm 2 mps 713 mmHg 83%
    10:00 +1°C° 0.1 mm 2 mps 714 mmHg 81%
    11:00 +2°C° 0.2 mm 2 mps 713 mmHg 78%
    12:00 +2°C° 0.2 mm 2 mps 713 mmHg 75%
    13:00 +2°C° 0.2 mm 2 mps 713 mmHg 72%
    14:00 +2°C° 0.2 mm 2 mps 713 mmHg 72%
    15:00 +2°C° 0.2 mm 2 mps 714 mmHg 72%
    16:00 +3°C° 0.2 mm 1 mps 714 mmHg 72%
    17:00 +2°C° 0.1 mm 1 mps 714 mmHg 74%
    18:00 +2°C° 0.1 mm 1 mps 715 mmHg 76%
    19:00 +2°C° 0.1 mm 1 mps 715 mmHg 78%
    20:00 +1°C° 0 mm 1 mps 715 mmHg 79%
    21:00 +1°C° 0 mm 1 mps 716 mmHg 80%
    22:00 +1°C° 0 mm 1 mps 716 mmHg 81%
    23:00 +1°C° 0 mm 1 mps 716 mmHg 80%

    21 January, Monday

    Time Temperature Precipitation Wind Pressure Humidity
    00:00 +1°C° 0 mm 1 mps 716 mmHg 79%
    01:00 +1°C° 0 mm 1 mps 716 mmHg 79%
    02:00 +1°C° 0 mm 1 mps 716 mmHg 79%
    03:00 +1°C° 0 mm 1 mps 716 mmHg 78%
    04:00 +1°C° 0 mm 1 mps 716 mmHg 78%
    05:00 +1°C° 0 mm 1 mps 716 mmHg 78%
    06:00 +1°C° 0 mm 1 mps 716 mmHg 78%
    07:00 +1°C° 0 mm 1 mps 716 mmHg 78%
    08:00 +2°C° 0 mm 1 mps 717 mmHg 75%
    09:00 +3°C° 0 mm 1 mps 717 mmHg 72%
    10:00 +4°C° 0 mm 1 mps 717 mmHg 68%
    11:00 +4°C° 0 mm 1 mps 716 mmHg 67%
    12:00 +5°C° 0 mm 1 mps 716 mmHg 67%
    13:00 +4°C° 0 mm 2 mps 716 mmHg 66%
    14:00 +5°C° 0.1 mm 1 mps 715 mmHg 68%
    15:00 +5°C° 0.1 mm 1 mps 715 mmHg 69%
    16:00 +5°C° 0.1 mm 1 mps 715 mmHg 70%
    17:00 +4°C° 0 mm 1 mps 715 mmHg 73%
    18:00 +4°C° 0 mm 1 mps 715 mmHg 75%
    19:00 +3°C° 0 mm 0 mps 716 mmHg 77%
    20:00 +2°C° 0 mm 0 mps 715 mmHg 76%
    21:00 +2°C° 0 mm 0 mps 715 mmHg 75%
    22:00 +2°C° 0 mm 0 mps 715 mmHg 75%
    23:00 +2°C° 0 mm 0 mps 715 mmHg 73%

    22 January, Tuesday

    Time Temperature Precipitation Wind Pressure Humidity
    00:00 +1°C° 0 mm 0 mps 715 mmHg 72%
    01:00 +1°C° 0 mm 0 mps 714 mmHg 71%
    02:00 +1°C° 0 mm 0 mps 714 mmHg 69%
    03:00 +2°C° 0 mm 1 mps 714 mmHg 68%
    04:00 +2°C° 0 mm 1 mps 714 mmHg 66%
    05:00 +2°C° 0 mm 1 mps 714 mmHg 64%
    06:00 +2°C° 0 mm 1 mps 713 mmHg 62%
    07:00 +2°C° 0 mm 1 mps 713 mmHg 61%
    08:00 +3°C° 0 mm 1 mps 713 mmHg 58%
    09:00 +4°C° 0 mm 1 mps 714 mmHg 55%
    10:00 +6°C° 0 mm 1 mps 714 mmHg 52%
    11:00 +6°C° 0 mm 1 mps 713 mmHg 53%
    12:00 +6°C° 0 mm 1 mps 713 mmHg 53%
    13:00 +7°C° 0 mm 1 mps 712 mmHg 54%
    14:00 +7°C° 0 mm 1 mps 712 mmHg 56%
    15:00 +6°C° 0 mm 1 mps 712 mmHg 59%
    16:00 +6°C° 0 mm 1 mps 712 mmHg 61%
    17:00 +5°C° 0 mm 1 mps 712 mmHg 63%
    18:00 +5°C° 0 mm 1 mps 713 mmHg 65%
    19:00 +4°C° 0 mm 1 mps 713 mmHg 67%
    20:00 +4°C° 0 mm 1 mps 713 mmHg 66%
    21:00 +4°C° 0 mm 1 mps 713 mmHg 65%
    22:00 +4°C° 0 mm 1 mps 713 mmHg 64%
    23:00 +4°C° 0 mm 1 mps 713 mmHg 63%
    Show more